• Join FlightAware (Why Join?)
  • Login
  • US Flag 
03:34PM EST


 

Airport Tracker/Info


-or-


 

Live Flight TrackerFlight Track Log ✈ ASQ5685 ✈ 18-Jul-2013 ✈ KATL - KIAD

Flight Track Log - Related Links

Times and Time Zones

All times are in EDT time to prevent confusion due to time zone crossing. See the ASQ5685 flight status page for this flight to view local times or setup timezone preferences in your user account.

Time Position Orientation Groundspeed Altitude Reporting Facility
EDT Latitude Longitude Course Direction KTS MPH feet Rate Location/Type
09:23AM 33.6333 -84.3833 48° Northeast 178 205 2,300  Level Atlanta TRACON
09:24AM 33.6333 -84.3000 90° East 250 288 3,500 1,860 Climbing Atlanta TRACON
09:25AM 33.6333 -84.2167 90° East 269 310 5,900 2,340 Climbing Atlanta TRACON
09:26AM 33.7618 -83.9583 54° Northeast  Level FlightAware Approximate
09:26AM 33.6333 -84.1333 90° East 278 320 8,200  Level Atlanta TRACON
09:27AM 33.8213 -83.8591 54° Northeast  Level FlightAware Approximate
09:27AM 33.6900 -84.0289 57° Northeast 284 327 10,400  Level Atlanta Center
09:28AM 33.8828 -83.7618 48° Northeast  Level FlightAware Approximate
09:28AM 33.7525 -83.9464 48° Northeast 313 360 11,500  Level Atlanta Center
09:29AM 33.8169 -83.8614 48° Northeast 329 379 13,100 1,500 Climbing Atlanta Center
09:30AM 33.8794 -83.7811 47° Northeast 334 384 14,600 1,440 Climbing Atlanta Center
09:31AM 33.9439 -83.6908 49° Northeast 339 390 16,000 1,080 Climbing Atlanta Center
09:32AM 33.9958 -83.6078 53° Northeast 344 396 16,800 960 Climbing Atlanta Center
09:33AM 34.0561 -83.5122 53° Northeast 356 410 18,000 1,380 Climbing Atlanta Center
09:34AM 34.1161 -83.4189 52° Northeast 356 410 19,600 1,380 Climbing Atlanta Center
09:35AM 34.1719 -83.3258 54° Northeast 350 403 20,800 1,020 Climbing Atlanta Center
09:36AM 34.2278 -83.2347 53° Northeast 344 396 21,700 900 Climbing Atlanta Center
09:37AM 34.2878 -83.1411 52° Northeast 349 402 22,600 840 Climbing Atlanta Center
09:38AM 34.3475 -83.0400 54° Northeast 349 402 23,400 780 Climbing Atlanta Center
09:39AM 34.4153 -82.9333 52° Northeast 357 411 24,200 780 Climbing Atlanta Center
09:40AM 34.4814 -82.8342 51° Northeast 368 423 25,000 720 Climbing Atlanta Center
09:41AM 34.5408 -82.7350 54° Northeast 368 423 25,700 660 Climbing Atlanta Center
09:42AM 34.6022 -82.6356 53° Northeast 368 423 26,400 600 Climbing Atlanta Center
09:43AM 34.6597 -82.5439 53° Northeast 368 423 26,900 300 Climbing Atlanta Center
09:44AM 34.7231 -82.4392 54° Northeast 373 429 27,000  Climbing Atlanta Center
09:45AM 34.7864 -82.3367 53° Northeast 378 435 27,000  Level Atlanta Center
09:46AM 34.8494 -82.2317 54° Northeast 378 435 27,000  Level Atlanta Center
09:47AM 34.9186 -82.1161 54° Northeast 378 435 27,000  Level Atlanta Center
09:48AM 34.9778 -82.0236 52° Northeast 386 444 27,000  Level Atlanta Center
09:49AM 35.0406 -81.9181 54° Northeast 386 444 27,000  Level Atlanta Center
09:50AM 35.1011 -81.8047 57° Northeast 386 444 27,000  Level Atlanta Center
09:51AM 35.1575 -81.6939 58° Northeast 386 444 27,000  Level Atlanta Center
09:52AM 35.2158 -81.5831 57° Northeast 391 450 27,000  Level Atlanta Center
09:53AM 35.2742 -81.4694 58° Northeast 396 456 27,000  Level Atlanta Center
09:54AM 35.3403 -81.3450 57° Northeast 391 450 27,000  Level Atlanta Center
09:55AM 35.4003 -81.2283 58° Northeast 391 450 27,000  Level Atlanta Center
09:56AM 35.4581 -81.1142 58° Northeast 391 450 27,000  Level Atlanta Center
09:57AM 35.5139 -81.0103 57° Northeast 396 456 27,000  Level Atlanta Center
09:58AM 35.5775 -80.8853 58° Northeast 396 456 27,000  Level Atlanta Center
09:59AM 35.6392 -80.7706 56° Northeast 396 456 27,000  Level Atlanta Center
10:00AM 35.6967 -80.6583 58° Northeast 395 455 27,000  Level Atlanta Center
10:02AM 35.7936 -80.4703 58° Northeast 385 443 27,000  Level Washington Center
10:03AM 35.8525 -80.3533 58° Northeast 385 443 27,000  Level Washington Center
10:04AM 35.9114 -80.2417 57° Northeast 396 456 27,000  Level Washington Center
10:05AM 35.9700 -80.1269 58° Northeast 396 456 27,000  Level Washington Center
10:06AM 36.0306 -80.0150 56° Northeast 390 449 27,000  Level Washington Center
10:07AM 36.0908 -79.9025 56° Northeast 390 449 27,000  Level Washington Center
10:08AM 36.1533 -79.7903 55° Northeast 390 449 27,000 -60 Level Washington Center
10:09AM 36.2281 -79.6861 48° Northeast 400 460 26,900 -480 Descending Washington Center
10:10AM 36.3111 -79.5692 49° Northeast 400 460 26,100 -780 Descending Washington Center
10:11AM 36.3897 -79.4597 48° Northeast 413 475 25,400 -600 Descending Washington Center
10:12AM 36.4706 -79.3475 48° Northeast 418 481 25,000 -240 Descending Washington Center
10:13AM 36.5492 -79.2350 49° Northeast 423 487 25,000  Level Washington Center
10:14AM 36.6189 -79.1372 48° Northeast 423 487 25,000  Level Washington Center
10:15AM 36.6950 -79.0294 49° Northeast 423 487 25,000  Level Washington Center
10:16AM 36.7711 -78.9214 49° Northeast 423 487 25,000  Level Washington Center
10:17AM 36.8578 -78.8031 48° Northeast 423 487 25,000  Level Washington Center
10:18AM 36.9458 -78.7156 38° Northeast 412 474 25,000  Level Washington Center
10:19AM 37.0336 -78.6256 39° Northeast 407 468 25,000  Level Washington Center
10:20AM 37.1233 -78.5353 39° Northeast 401 461 25,000 -600 Level Washington Center
10:21AM 37.2067 -78.4550 37° Northeast 410 472 23,800 -1,320 Descending Washington Center
10:22AM 37.2986 -78.3619 39° Northeast 416 479 22,400 -900 Descending Washington Center
10:23AM 37.3883 -78.2711 39° Northeast 416 479 22,000 -240 Descending Washington Center
10:24AM 37.4822 -78.1750 39° Northeast 405 466 22,000  Level Washington Center
10:25AM 37.5653 -78.0914 39° Northeast 394 453 22,000 -120 Level Washington Center
10:26AM 37.6442 -78.0072 40° Northeast 382 440 21,800 -1,020 Descending Washington Center
10:27AM 37.7317 -77.9156 40° Northeast 387 445 20,000 -1,920 Descending Washington Center
10:28AM 37.8208 -77.8236 39° Northeast 398 458 18,000 -1,920 Descending Washington Center
10:29AM 37.9103 -77.7317 39° Northeast 408 470 16,200 -1,980 Descending Washington Center
10:30AM 37.9953 -77.6417 40° Northeast 408 470 14,200 -1,920 Descending Washington Center
10:31AM 38.0694 -77.5647 39° Northeast 390 449 12,500 -1,860 Descending Washington Center
10:32AM 38.1458 -77.4900 38° Northeast 385 443 10,500 -1,320 Descending Washington Center
10:33AM 38.2503 -77.4717 North 336 387 9,900 -1,200 Descending Washington Center
10:34AM 38.3294 -77.4708 360° North 303 349 8,200 -1,500 Descending Washington Center
10:35AM 38.4047 -77.4703 360° North 286 329 7,000 -1,140 Descending Washington Center
10:36AM 38.4797 -77.4694 360° North 269 310 6,000 -840 Descending Washington Center
10:37AM 38.5464 -77.4683 North 262 302 5,400 -960 Descending Washington Center
10:38AM 38.6089 -77.4672 North 242 278 4,100 -720 Descending Washington Center
10:39AM 38.6675 -77.4661 North 218 251 4,000 -60 Descending Washington Center
10:40AM 38.7217 -77.4650 North 204 235 4,000 -420 Level Washington Center
10:41AM 38.7833 -77.4667 359° North 143 165 3,100 -660 Descending Potomac TRACON